Tracking 18840 objects as of 19-November-2017
HD Live streaming from Space Station
objects crossing your sky now

OAO 1

Track OAO 1 now!
10-day predictions
OAO 1 is classified as:


NORAD ID: 2142
Int'l Code: 1966-031A
Perigee: 780.4 km
Apogee: 791.5 km
Inclination: 35.0 °
Period: 100.4 minutes
Semi major axis: 7156 km
RCS: 10.9 m2 (large)
Launch date: April 8, 1966
Source: United States (US)
Launch site: AIR FORCE EASTERN TEST RANGE (AFETR)
aabbcc
Your satellite tracking list
Your tracking list is empty




NASA's NSSDC Master Catalog

Two Line Element Set (TLE):
1 02142U 66031A   17322.81167805  .00000002  00000-0  73913-5 0  9996
2 02142  35.0443 157.1369 0007719 235.2265 124.7696 14.33874254701612
Source of the keplerian elements: AFSPC